Year,Month,Day,Hour,Minute,Value (Times are PST for temperature in C)
2015,06,30,00,00,18.90
2015,06,30,00,01,18.90
2015,06,30,00,02,18.90
2015,06,30,00,03,18.90
2015,06,30,00,04,18.90
2015,06,30,00,05,18.80
2015,06,30,00,06,18.80
2015,06,30,00,07,18.80
2015,06,30,00,08,18.80
2015,06,30,00,09,18.80
2015,06,30,00,10,18.80
2015,06,30,00,11,18.80
2015,06,30,00,12,18.80
2015,06,30,00,13,18.80
2015,06,30,00,14,18.80
2015,06,30,00,15,18.80
2015,06,30,00,16,18.80
2015,06,30,00,17,18.80
2015,06,30,00,18,18.90
2015,06,30,00,19,18.90
2015,06,30,00,20,18.90
2015,06,30,00,21,18.90
2015,06,30,00,22,18.90
2015,06,30,00,23,18.80
2015,06,30,00,24,18.80
2015,06,30,00,25,18.80
2015,06,30,00,26,18.80
2015,06,30,00,27,18.80
2015,06,30,00,28,18.80
2015,06,30,00,29,18.80
2015,06,30,00,30,18.80
2015,06,30,00,31,18.80
2015,06,30,00,32,18.80
2015,06,30,00,33,18.80
2015,06,30,00,34,18.80
2015,06,30,00,35,18.80
2015,06,30,00,36,18.80
2015,06,30,00,37,18.80
2015,06,30,00,38,18.80
2015,06,30,00,39,18.70
2015,06,30,00,40,18.70
2015,06,30,00,41,18.70
2015,06,30,00,42,18.70
2015,06,30,00,43,18.70
2015,06,30,00,44,18.70
2015,06,30,00,45,18.70
2015,06,30,00,46,18.60
2015,06,30,00,47,18.60
2015,06,30,00,48,18.60
2015,06,30,00,49,18.60
2015,06,30,00,50,18.50
2015,06,30,00,51,18.50
2015,06,30,00,52,18.50
2015,06,30,00,53,18.50
2015,06,30,00,54,18.40
2015,06,30,00,55,18.40
2015,06,30,00,56,18.40
2015,06,30,00,57,18.40
2015,06,30,00,58,18.40
2015,06,30,00,59,18.30
2015,06,30,01,00,18.30
2015,06,30,01,01,18.30
2015,06,30,01,02,18.20
2015,06,30,01,03,18.20
2015,06,30,01,04,18.20
2015,06,30,01,05,18.20
2015,06,30,01,06,18.10
2015,06,30,01,07,18.10
2015,06,30,01,08,18.10
2015,06,30,01,09,18.00
2015,06,30,01,10,18.00
2015,06,30,01,11,17.90
2015,06,30,01,12,17.90
2015,06,30,01,13,17.90
2015,06,30,01,14,17.90
2015,06,30,01,15,17.80
2015,06,30,01,16,17.80
2015,06,30,01,17,17.80
2015,06,30,01,18,17.80
2015,06,30,01,19,17.70
2015,06,30,01,20,17.70
2015,06,30,01,21,17.70
2015,06,30,01,22,17.70
2015,06,30,01,23,17.70
2015,06,30,01,24,17.60
2015,06,30,01,25,17.60
2015,06,30,01,26,17.60
2015,06,30,01,27,17.60
2015,06,30,01,28,17.50
2015,06,30,01,29,17.50
2015,06,30,01,30,17.50
2015,06,30,01,31,17.40
2015,06,30,01,32,17.40
2015,06,30,01,33,17.40
2015,06,30,01,34,17.40
2015,06,30,01,35,17.30
2015,06,30,01,36,17.30
2015,06,30,01,37,17.30
2015,06,30,01,38,17.30
2015,06,30,01,39,17.30
2015,06,30,01,40,17.30
2015,06,30,01,41,17.30
2015,06,30,01,42,17.20
2015,06,30,01,43,17.20
2015,06,30,01,44,17.20
2015,06,30,01,45,17.20
2015,06,30,01,46,17.20
2015,06,30,01,47,17.20
2015,06,30,01,48,17.10
2015,06,30,01,49,17.10
2015,06,30,01,50,17.10
2015,06,30,01,51,17.10
2015,06,30,01,52,17.00
2015,06,30,01,53,17.00
2015,06,30,01,54,17.00
2015,06,30,01,55,17.00
2015,06,30,01,56,16.90
2015,06,30,01,57,16.90
2015,06,30,01,58,16.90
2015,06,30,01,59,16.90
2015,06,30,02,00,16.90
2015,06,30,02,01,16.80
2015,06,30,02,02,16.80
2015,06,30,02,03,16.80
2015,06,30,02,04,16.80
2015,06,30,02,05,16.80
2015,06,30,02,06,16.70
2015,06,30,02,07,16.70
2015,06,30,02,08,16.70
2015,06,30,02,09,16.70
2015,06,30,02,10,16.70
2015,06,30,02,11,16.70
2015,06,30,02,12,16.70
2015,06,30,02,13,16.70
2015,06,30,02,14,16.60
2015,06,30,02,15,16.60
2015,06,30,02,16,16.60
2015,06,30,02,17,16.60
2015,06,30,02,18,16.50
2015,06,30,02,19,16.50
2015,06,30,02,20,16.50
2015,06,30,02,21,16.50
2015,06,30,02,22,16.40
2015,06,30,02,23,16.40
2015,06,30,02,24,16.40
2015,06,30,02,25,16.40
2015,06,30,02,26,16.40
2015,06,30,02,27,16.30
2015,06,30,02,28,16.30
2015,06,30,02,29,16.30
2015,06,30,02,30,16.30
2015,06,30,02,31,16.30
2015,06,30,02,32,16.30
2015,06,30,02,33,16.30
2015,06,30,02,34,16.30
2015,06,30,02,35,16.30
2015,06,30,02,36,16.30
2015,06,30,02,37,16.20
2015,06,30,02,38,16.20
2015,06,30,02,39,16.20
2015,06,30,02,40,16.20
2015,06,30,02,41,16.20
2015,06,30,02,42,16.20
2015,06,30,02,43,16.20
2015,06,30,02,44,16.20
2015,06,30,02,45,16.20
2015,06,30,02,46,16.20
2015,06,30,02,47,16.20
2015,06,30,02,48,16.20
2015,06,30,02,49,16.20
2015,06,30,02,50,16.20
2015,06,30,02,51,16.20
2015,06,30,02,52,16.20
2015,06,30,02,53,16.20
2015,06,30,02,54,16.10
2015,06,30,02,55,16.10
2015,06,30,02,56,16.10
2015,06,30,02,57,16.10
2015,06,30,02,58,16.10
2015,06,30,02,59,16.10
2015,06,30,03,00,16.10
2015,06,30,03,01,16.10
2015,06,30,03,02,16.10
2015,06,30,03,03,16.10
2015,06,30,03,04,16.10
2015,06,30,03,05,16.10
2015,06,30,03,06,16.10
2015,06,30,03,07,16.10
2015,06,30,03,08,16.10
2015,06,30,03,09,16.10
2015,06,30,03,10,16.10
2015,06,30,03,11,16.10
2015,06,30,03,12,16.00
2015,06,30,03,13,16.00
2015,06,30,03,14,16.00
2015,06,30,03,15,16.00
2015,06,30,03,16,16.00
2015,06,30,03,17,16.00
2015,06,30,03,18,16.00
2015,06,30,03,19,16.00
2015,06,30,03,20,15.90
2015,06,30,03,21,15.90
2015,06,30,03,22,15.90
2015,06,30,03,23,15.90
2015,06,30,03,24,15.90
2015,06,30,03,25,15.90
2015,06,30,03,26,15.90
2015,06,30,03,27,15.90
2015,06,30,03,28,15.90
2015,06,30,03,29,15.90
2015,06,30,03,30,15.90
2015,06,30,03,31,15.80
2015,06,30,03,32,15.80
2015,06,30,03,33,15.80
2015,06,30,03,34,15.80
2015,06,30,03,35,15.80
2015,06,30,03,36,15.80
2015,06,30,03,37,15.80
2015,06,30,03,38,15.80
2015,06,30,03,39,15.80
2015,06,30,03,40,15.80
2015,06,30,03,41,15.80
2015,06,30,03,42,15.80
2015,06,30,03,43,15.80
2015,06,30,03,44,15.80
2015,06,30,03,45,15.80
2015,06,30,03,46,15.80
2015,06,30,03,47,15.80
2015,06,30,03,48,15.80
2015,06,30,03,49,15.80
2015,06,30,03,50,15.80
2015,06,30,03,51,15.80
2015,06,30,03,52,15.80
2015,06,30,03,53,15.80
2015,06,30,03,54,15.80
2015,06,30,03,55,15.80
2015,06,30,03,56,15.80
2015,06,30,03,57,15.80
2015,06,30,03,58,15.80
2015,06,30,03,59,15.80
2015,06,30,04,00,15.80
2015,06,30,04,01,15.90
2015,06,30,04,02,15.90
2015,06,30,04,03,15.90
2015,06,30,04,04,15.90
2015,06,30,04,05,15.90
2015,06,30,04,06,15.90
2015,06,30,04,07,15.90
2015,06,30,04,08,15.90
2015,06,30,04,09,15.90
2015,06,30,04,10,15.90
2015,06,30,04,11,15.90
2015,06,30,04,12,15.90
2015,06,30,04,13,15.90
2015,06,30,04,14,15.90
2015,06,30,04,15,15.90
2015,06,30,04,16,15.90
2015,06,30,04,17,15.90
2015,06,30,04,18,15.90
2015,06,30,04,19,15.90
2015,06,30,04,20,15.90
2015,06,30,04,21,15.90
2015,06,30,04,22,15.90
2015,06,30,04,23,16.00
2015,06,30,04,24,16.00
2015,06,30,04,25,16.00
2015,06,30,04,26,16.00
2015,06,30,04,27,16.00
2015,06,30,04,28,16.00
2015,06,30,04,29,16.00
2015,06,30,04,30,16.00
2015,06,30,04,31,16.10
2015,06,30,04,32,16.10
2015,06,30,04,33,16.10
2015,06,30,04,34,16.10
2015,06,30,04,35,16.10
2015,06,30,04,36,16.10
2015,06,30,04,37,16.10
2015,06,30,04,38,16.10
2015,06,30,04,39,16.10
2015,06,30,04,40,16.10
2015,06,30,04,41,16.10
2015,06,30,04,42,16.10
2015,06,30,04,43,16.10
2015,06,30,04,44,16.10
2015,06,30,04,45,16.10
2015,06,30,04,46,16.10
2015,06,30,04,47,16.10
2015,06,30,04,48,16.10
2015,06,30,04,49,16.10
2015,06,30,04,50,16.10
2015,06,30,04,51,16.10
2015,06,30,04,52,16.10
2015,06,30,04,53,16.10
2015,06,30,04,54,16.10
2015,06,30,04,55,16.20
2015,06,30,04,56,16.10
2015,06,30,04,57,16.10
2015,06,30,04,58,16.20
2015,06,30,04,59,16.20
2015,06,30,05,00,16.20
2015,06,30,05,01,16.20
2015,06,30,05,02,16.20
2015,06,30,05,03,16.20
2015,06,30,05,04,16.20
2015,06,30,05,05,16.20
2015,06,30,05,06,16.20
2015,06,30,05,07,16.20
2015,06,30,05,08,16.20
2015,06,30,05,09,16.20
2015,06,30,05,10,16.20
2015,06,30,05,11,16.20
2015,06,30,05,12,16.20
2015,06,30,05,13,16.20
2015,06,30,05,14,16.20
2015,06,30,05,15,16.20
2015,06,30,05,16,16.20
2015,06,30,05,17,16.20
2015,06,30,05,18,16.20
2015,06,30,05,19,16.20
2015,06,30,05,20,16.20
2015,06,30,05,21,16.20
2015,06,30,05,22,16.20
2015,06,30,05,23,16.20
2015,06,30,05,24,16.20
2015,06,30,05,25,16.20
2015,06,30,05,26,16.20
2015,06,30,05,27,16.20
2015,06,30,05,28,16.20
2015,06,30,05,29,16.20
2015,06,30,05,30,16.20
2015,06,30,05,31,16.20
2015,06,30,05,32,16.20
2015,06,30,05,33,16.20
2015,06,30,05,34,16.20
2015,06,30,05,35,16.20
2015,06,30,05,36,16.30
2015,06,30,05,37,16.30
2015,06,30,05,38,16.30
2015,06,30,05,39,16.30
2015,06,30,05,40,16.30
2015,06,30,05,41,16.30
2015,06,30,05,42,16.30
2015,06,30,05,43,16.30
2015,06,30,05,44,16.30
2015,06,30,05,45,16.30
2015,06,30,05,46,16.30
2015,06,30,05,47,16.30
2015,06,30,05,48,16.30
2015,06,30,05,49,16.30
2015,06,30,05,50,16.30
2015,06,30,05,51,16.30
2015,06,30,05,52,16.30
2015,06,30,05,53,16.30
2015,06,30,05,54,16.40
2015,06,30,05,55,16.40
2015,06,30,05,56,16.40
2015,06,30,05,57,16.40
2015,06,30,05,58,16.40
2015,06,30,05,59,16.40
2015,06,30,06,00,16.40
2015,06,30,06,01,16.40
2015,06,30,06,02,16.50
2015,06,30,06,03,16.50
2015,06,30,06,04,16.50
2015,06,30,06,05,16.50
2015,06,30,06,06,16.50
2015,06,30,06,07,16.60
2015,06,30,06,08,16.60
2015,06,30,06,09,16.60
2015,06,30,06,10,16.60
2015,06,30,06,11,16.60
2015,06,30,06,12,16.60
2015,06,30,06,13,16.60
2015,06,30,06,14,16.60
2015,06,30,06,15,16.60
2015,06,30,06,16,16.60
2015,06,30,06,17,16.70
2015,06,30,06,18,16.70
2015,06,30,06,19,16.70
2015,06,30,06,20,16.70
2015,06,30,06,21,16.70
2015,06,30,06,22,16.70
2015,06,30,06,23,16.70
2015,06,30,06,24,16.70
2015,06,30,06,25,16.70
2015,06,30,06,26,16.70
2015,06,30,06,27,16.70
2015,06,30,06,28,16.70
2015,06,30,06,29,16.80
2015,06,30,06,30,16.80
2015,06,30,06,31,16.80
2015,06,30,06,32,16.80
2015,06,30,06,33,16.80
2015,06,30,06,34,16.80
2015,06,30,06,35,16.90
2015,06,30,06,36,16.90
2015,06,30,06,37,16.90
2015,06,30,06,38,16.90
2015,06,30,06,39,16.90
2015,06,30,06,40,16.90
2015,06,30,06,41,16.90
2015,06,30,06,42,17.00
2015,06,30,06,43,17.00
2015,06,30,06,44,17.00
2015,06,30,06,45,17.10
2015,06,30,06,46,17.10
2015,06,30,06,47,17.10
2015,06,30,06,48,17.20
2015,06,30,06,49,17.20
2015,06,30,06,50,17.20
2015,06,30,06,51,17.30
2015,06,30,06,52,17.30
2015,06,30,06,53,17.40
2015,06,30,06,54,17.40
2015,06,30,06,55,17.40
2015,06,30,06,56,17.50
2015,06,30,06,57,17.60
2015,06,30,06,58,17.60
2015,06,30,06,59,17.60
2015,06,30,07,00,17.70
2015,06,30,07,01,17.70
2015,06,30,07,02,17.70
2015,06,30,07,03,17.70
2015,06,30,07,04,17.80
2015,06,30,07,05,17.80
2015,06,30,07,06,17.90
2015,06,30,07,07,17.90
2015,06,30,07,08,18.00
2015,06,30,07,09,18.00
2015,06,30,07,10,18.10
2015,06,30,07,11,18.10
2015,06,30,07,12,18.20
2015,06,30,07,13,18.30
2015,06,30,07,14,18.30
2015,06,30,07,15,18.40
2015,06,30,07,16,18.50
2015,06,30,07,17,18.60
2015,06,30,07,18,18.70
2015,06,30,07,19,18.80
2015,06,30,07,20,18.80
2015,06,30,07,21,18.90
2015,06,30,07,22,18.90
2015,06,30,07,23,19.00
2015,06,30,07,24,19.00
2015,06,30,07,25,19.00
2015,06,30,07,26,19.10
2015,06,30,07,27,19.10
2015,06,30,07,28,19.10
2015,06,30,07,29,19.10
2015,06,30,07,30,19.20
2015,06,30,07,31,19.20
2015,06,30,07,32,19.20
2015,06,30,07,33,19.30
2015,06,30,07,34,19.30
2015,06,30,07,35,19.40
2015,06,30,07,36,19.40
2015,06,30,07,37,19.50
2015,06,30,07,38,19.60
2015,06,30,07,39,19.60
2015,06,30,07,40,19.70
2015,06,30,07,41,19.80
2015,06,30,07,42,19.80
2015,06,30,07,43,19.90
2015,06,30,07,44,19.90
2015,06,30,07,45,20.00
2015,06,30,07,46,20.10
2015,06,30,07,47,20.10
2015,06,30,07,48,20.10
2015,06,30,07,49,20.10
2015,06,30,07,50,20.20
2015,06,30,07,51,20.20
2015,06,30,07,52,20.30
2015,06,30,07,53,20.30
2015,06,30,07,54,20.30
2015,06,30,07,55,20.30
2015,06,30,07,56,20.40
2015,06,30,07,57,20.40
2015,06,30,07,58,20.40
2015,06,30,07,59,20.40
2015,06,30,08,00,20.40
2015,06,30,08,01,20.40
2015,06,30,08,02,20.40
2015,06,30,08,03,20.40
2015,06,30,08,04,20.50
2015,06,30,08,05,20.50
2015,06,30,08,06,20.50
2015,06,30,08,07,20.60
2015,06,30,08,08,20.60
2015,06,30,08,09,20.60
2015,06,30,08,10,20.60
2015,06,30,08,11,20.60
2015,06,30,08,12,20.70
2015,06,30,08,13,20.70
2015,06,30,08,14,20.70
2015,06,30,08,15,20.80
2015,06,30,08,16,20.80
2015,06,30,08,17,20.80
2015,06,30,08,18,20.80
2015,06,30,08,19,20.80
2015,06,30,08,20,20.80
2015,06,30,08,21,20.80
2015,06,30,08,22,20.80
2015,06,30,08,23,20.80
2015,06,30,08,24,20.80
2015,06,30,08,25,20.80
2015,06,30,08,26,20.80
2015,06,30,08,27,20.80
2015,06,30,08,28,20.80
2015,06,30,08,29,20.80
2015,06,30,08,30,20.70
2015,06,30,08,31,20.70
2015,06,30,08,32,20.70
2015,06,30,08,33,20.70
2015,06,30,08,34,20.70
2015,06,30,08,35,20.70
2015,06,30,08,36,20.60
2015,06,30,08,37,20.60
2015,06,30,08,38,20.70
2015,06,30,08,39,20.70
2015,06,30,08,40,20.80
2015,06,30,08,41,20.80
2015,06,30,08,42,20.90
2015,06,30,08,43,20.90
2015,06,30,08,44,20.90
2015,06,30,08,45,20.90
2015,06,30,08,46,20.90
2015,06,30,08,47,20.90
2015,06,30,08,48,20.90
2015,06,30,08,49,20.80
2015,06,30,08,50,20.80
2015,06,30,08,51,20.80
2015,06,30,08,52,20.80
2015,06,30,08,53,20.90
2015,06,30,08,54,20.90
2015,06,30,08,55,20.90
2015,06,30,08,56,20.90
2015,06,30,08,57,20.90
2015,06,30,08,58,21.00
2015,06,30,08,59,21.10
2015,06,30,09,00,21.20
2015,06,30,09,01,21.20
2015,06,30,09,02,21.30
2015,06,30,09,03,21.40
2015,06,30,09,04,21.40
2015,06,30,09,05,21.40
2015,06,30,09,06,21.40
2015,06,30,09,07,21.40
2015,06,30,09,08,21.50
2015,06,30,09,09,21.50
2015,06,30,09,10,21.60
2015,06,30,09,11,21.60
2015,06,30,09,12,21.70
2015,06,30,09,13,21.70
2015,06,30,09,14,21.80
2015,06,30,09,15,21.90
2015,06,30,09,16,22.00
2015,06,30,09,17,22.00
2015,06,30,09,18,22.00
2015,06,30,09,19,21.80
2015,06,30,09,20,21.70
2015,06,30,09,21,21.70
2015,06,30,09,22,21.70
2015,06,30,09,23,21.80
2015,06,30,09,24,21.80
2015,06,30,09,25,21.80
2015,06,30,09,26,21.70
2015,06,30,09,27,21.70
2015,06,30,09,28,21.60
2015,06,30,09,29,21.40
2015,06,30,09,30,21.30
2015,06,30,09,31,21.40
2015,06,30,09,32,21.40
2015,06,30,09,33,21.40
2015,06,30,09,34,21.40
2015,06,30,09,35,21.30
2015,06,30,09,36,21.30
2015,06,30,09,37,21.40
2015,06,30,09,38,21.40
2015,06,30,09,39,21.40
2015,06,30,09,40,21.40
2015,06,30,09,41,21.50
2015,06,30,09,42,21.60
2015,06,30,09,43,21.70
2015,06,30,09,44,21.70
2015,06,30,09,45,21.80
2015,06,30,09,46,21.80
2015,06,30,09,47,21.80
2015,06,30,09,48,21.90
2015,06,30,09,49,22.00
2015,06,30,09,50,22.00
2015,06,30,09,51,22.00
2015,06,30,09,52,22.00
2015,06,30,09,53,21.90
2015,06,30,09,54,21.80
2015,06,30,09,55,21.70
2015,06,30,09,56,21.60
2015,06,30,09,57,21.60
2015,06,30,09,58,21.50
2015,06,30,09,59,21.30
2015,06,30,10,00,21.30
2015,06,30,10,01,21.20
2015,06,30,10,02,21.20
2015,06,30,10,03,21.10
2015,06,30,10,04,21.10
2015,06,30,10,05,21.10
2015,06,30,10,06,21.10
2015,06,30,10,07,21.10
2015,06,30,10,08,21.20
2015,06,30,10,09,21.20
2015,06,30,10,10,21.20
2015,06,30,10,11,21.20
2015,06,30,10,12,21.20
2015,06,30,10,13,21.20
2015,06,30,10,14,21.20
2015,06,30,10,15,21.10
2015,06,30,10,16,21.20
2015,06,30,10,17,21.20
2015,06,30,10,18,21.30
2015,06,30,10,19,21.30
2015,06,30,10,20,21.20
2015,06,30,10,21,21.20
2015,06,30,10,22,21.20
2015,06,30,10,23,21.20
2015,06,30,10,24,21.30
2015,06,30,10,25,21.30
2015,06,30,10,26,21.40
2015,06,30,10,27,21.50
2015,06,30,10,28,21.60
2015,06,30,10,29,21.70
2015,06,30,10,30,21.90
2015,06,30,10,31,22.20
2015,06,30,10,32,22.40
2015,06,30,10,33,22.60
2015,06,30,10,34,22.70
2015,06,30,10,35,22.80
2015,06,30,10,36,22.80
2015,06,30,10,37,22.80
2015,06,30,10,38,22.80
2015,06,30,10,39,22.90
2015,06,30,10,40,22.90
2015,06,30,10,41,22.90
2015,06,30,10,42,22.90
2015,06,30,10,43,22.80
2015,06,30,10,44,22.70
2015,06,30,10,45,22.50
2015,06,30,10,46,22.40
2015,06,30,10,47,22.30
2015,06,30,10,48,22.30
2015,06,30,10,49,22.20
2015,06,30,10,50,22.20
2015,06,30,10,51,22.20
2015,06,30,10,52,22.10
2015,06,30,10,53,22.10
2015,06,30,10,54,22.10
2015,06,30,10,55,22.10
2015,06,30,10,56,22.10
2015,06,30,10,57,22.20
2015,06,30,10,58,22.20
2015,06,30,10,59,22.30
2015,06,30,11,00,22.40
2015,06,30,11,01,22.50
2015,06,30,11,02,22.50
2015,06,30,11,03,22.60
2015,06,30,11,04,22.60
2015,06,30,11,05,22.50
2015,06,30,11,06,22.40
2015,06,30,11,07,22.40
2015,06,30,11,08,22.30
2015,06,30,11,09,22.40
2015,06,30,11,10,22.50
2015,06,30,11,11,22.60
2015,06,30,11,12,22.70
2015,06,30,11,13,22.80
2015,06,30,11,14,22.90
2015,06,30,11,15,23.00
2015,06,30,11,16,23.00
2015,06,30,11,17,23.10
2015,06,30,11,18,23.20
2015,06,30,11,19,23.20
2015,06,30,11,20,23.10
2015,06,30,11,21,23.00
2015,06,30,11,22,23.00
2015,06,30,11,23,22.90
2015,06,30,11,24,22.80
2015,06,30,11,25,22.70
2015,06,30,11,26,22.70
2015,06,30,11,27,22.80
2015,06,30,11,28,22.90
2015,06,30,11,29,23.00
2015,06,30,11,30,23.10
2015,06,30,11,31,23.10
2015,06,30,11,32,23.10
2015,06,30,11,33,23.10
2015,06,30,11,34,23.10
2015,06,30,11,35,23.10
2015,06,30,11,36,23.10
2015,06,30,11,37,23.20
2015,06,30,11,38,23.10
2015,06,30,11,39,23.00
2015,06,30,11,40,22.90
2015,06,30,11,41,22.80
2015,06,30,11,42,22.70
2015,06,30,11,43,22.50
2015,06,30,11,44,22.50
2015,06,30,11,45,22.40
2015,06,30,11,46,22.40
2015,06,30,11,47,22.50
2015,06,30,11,48,22.50
2015,06,30,11,49,22.50
2015,06,30,11,50,22.60
2015,06,30,11,51,22.70
2015,06,30,11,52,22.70
2015,06,30,11,53,22.70
2015,06,30,11,54,22.70
2015,06,30,11,55,22.70
2015,06,30,11,56,22.90
2015,06,30,11,57,23.10
2015,06,30,11,58,23.20
2015,06,30,11,59,23.30
2015,06,30,12,00,23.30
2015,06,30,12,01,23.20
2015,06,30,12,02,23.20
2015,06,30,12,03,23.20
2015,06,30,12,04,23.20
2015,06,30,12,05,23.10
2015,06,30,12,06,23.10
2015,06,30,12,07,23.10
2015,06,30,12,08,23.10
2015,06,30,12,09,23.10
2015,06,30,12,10,23.10
2015,06,30,12,11,23.20
2015,06,30,12,12,23.20
2015,06,30,12,13,23.30
2015,06,30,12,14,23.30
2015,06,30,12,15,23.40
2015,06,30,12,16,23.40
2015,06,30,12,17,23.30
2015,06,30,12,18,23.20
2015,06,30,12,19,23.20
2015,06,30,12,20,23.30
2015,06,30,12,21,23.40
2015,06,30,12,22,23.50
2015,06,30,12,23,23.60
2015,06,30,12,24,23.70
2015,06,30,12,25,23.70
2015,06,30,12,26,23.90
2015,06,30,12,27,24.00
2015,06,30,12,28,24.10
2015,06,30,12,29,24.20
2015,06,30,12,30,24.20
2015,06,30,12,31,24.20
2015,06,30,12,32,24.20
2015,06,30,12,33,24.00
2015,06,30,12,34,23.90
2015,06,30,12,35,23.80
2015,06,30,12,36,23.80
2015,06,30,12,37,23.80
2015,06,30,12,38,23.80
2015,06,30,12,39,23.70
2015,06,30,12,40,23.70
2015,06,30,12,41,23.70
2015,06,30,12,42,23.80
2015,06,30,12,43,23.80
2015,06,30,12,44,23.80
2015,06,30,12,45,23.90
2015,06,30,12,46,23.90
2015,06,30,12,47,24.00
2015,06,30,12,48,24.10
2015,06,30,12,49,24.10
2015,06,30,12,50,24.10
2015,06,30,12,51,24.20
2015,06,30,12,52,24.10
2015,06,30,12,53,24.10
2015,06,30,12,54,24.10
2015,06,30,12,55,24.20
2015,06,30,12,56,24.30
2015,06,30,12,57,24.40
2015,06,30,12,58,24.50
2015,06,30,12,59,24.60
2015,06,30,13,00,24.70
2015,06,30,13,01,24.80
2015,06,30,13,02,24.80
2015,06,30,13,03,24.80
2015,06,30,13,04,24.70
2015,06,30,13,05,24.70
2015,06,30,13,06,24.50
2015,06,30,13,07,24.30
2015,06,30,13,08,24.20
2015,06,30,13,09,24.10
2015,06,30,13,10,24.00
2015,06,30,13,11,23.90
2015,06,30,13,12,23.90
2015,06,30,13,13,23.80
2015,06,30,13,14,23.80
2015,06,30,13,15,23.70
2015,06,30,13,16,23.60
2015,06,30,13,17,23.50
2015,06,30,13,18,23.40
2015,06,30,13,19,23.20
2015,06,30,13,20,23.10
2015,06,30,13,21,22.90
2015,06,30,13,22,22.80
2015,06,30,13,23,22.60
2015,06,30,13,24,22.60
2015,06,30,13,25,22.50
2015,06,30,13,26,22.50
2015,06,30,13,27,22.50
2015,06,30,13,28,22.60
2015,06,30,13,29,22.60
2015,06,30,13,30,22.70
2015,06,30,13,31,22.80
2015,06,30,13,32,22.80
2015,06,30,13,33,22.90
2015,06,30,13,34,22.90
2015,06,30,13,35,23.00
2015,06,30,13,36,23.20
2015,06,30,13,37,23.30
2015,06,30,13,38,23.40
2015,06,30,13,39,23.50
2015,06,30,13,40,23.70
2015,06,30,13,41,23.80
2015,06,30,13,42,23.90
2015,06,30,13,43,23.90
2015,06,30,13,44,23.90
2015,06,30,13,45,23.90
2015,06,30,13,46,23.90
2015,06,30,13,47,23.80
2015,06,30,13,48,23.80
2015,06,30,13,49,23.70
2015,06,30,13,50,23.70
2015,06,30,13,51,23.70
2015,06,30,13,52,23.70
2015,06,30,13,53,23.70
2015,06,30,13,54,23.70
2015,06,30,13,55,23.80
2015,06,30,13,56,23.80
2015,06,30,13,57,23.90
2015,06,30,13,58,24.00
2015,06,30,13,59,24.10
2015,06,30,14,00,24.10
2015,06,30,14,01,24.00
2015,06,30,14,02,24.00
2015,06,30,14,03,24.10
2015,06,30,14,04,24.20
2015,06,30,14,05,24.20
2015,06,30,14,06,24.20
2015,06,30,14,07,24.30
2015,06,30,14,08,24.30
2015,06,30,14,09,24.40
2015,06,30,14,10,24.40
2015,06,30,14,11,24.50
2015,06,30,14,12,24.60
2015,06,30,14,13,24.60
2015,06,30,14,14,24.70
2015,06,30,14,15,24.80
2015,06,30,14,16,24.90
2015,06,30,14,17,25.00
2015,06,30,14,18,25.10
2015,06,30,14,19,25.10
2015,06,30,14,20,25.10
2015,06,30,14,21,25.30
2015,06,30,14,22,25.40
2015,06,30,14,23,25.60
2015,06,30,14,24,25.70
2015,06,30,14,25,25.70
2015,06,30,14,26,25.80
2015,06,30,14,27,25.70
2015,06,30,14,28,25.70
2015,06,30,14,29,25.70
2015,06,30,14,30,25.60
2015,06,30,14,31,25.50
2015,06,30,14,32,25.30
2015,06,30,14,33,25.20
2015,06,30,14,34,25.20
2015,06,30,14,35,25.20
2015,06,30,14,36,25.10
2015,06,30,14,37,25.10
2015,06,30,14,38,25.20
2015,06,30,14,39,25.20
2015,06,30,14,40,25.30
2015,06,30,14,41,25.40
2015,06,30,14,42,25.50
2015,06,30,14,43,25.50
2015,06,30,14,44,25.60
2015,06,30,14,45,25.70
2015,06,30,14,46,25.80
2015,06,30,14,47,25.90
2015,06,30,14,48,26.00
2015,06,30,14,49,26.00
2015,06,30,14,50,26.00
2015,06,30,14,51,26.00
2015,06,30,14,52,25.90
2015,06,30,14,53,25.70
2015,06,30,14,54,25.60
2015,06,30,14,55,25.60
2015,06,30,14,56,25.70
2015,06,30,14,57,25.80
2015,06,30,14,58,25.90
2015,06,30,14,59,26.00
2015,06,30,15,00,26.10
2015,06,30,15,01,26.20
2015,06,30,15,02,26.20
2015,06,30,15,03,26.30
2015,06,30,15,04,26.20
2015,06,30,15,05,26.20
2015,06,30,15,06,26.20
2015,06,30,15,07,26.10
2015,06,30,15,08,26.10
2015,06,30,15,09,26.20
2015,06,30,15,10,26.20
2015,06,30,15,11,26.30
2015,06,30,15,12,26.30
2015,06,30,15,13,26.20
2015,06,30,15,14,26.20
2015,06,30,15,15,26.20
2015,06,30,15,16,26.20
2015,06,30,15,17,26.20
2015,06,30,15,18,26.30
2015,06,30,15,19,26.40
2015,06,30,15,20,26.40
2015,06,30,15,21,26.40
2015,06,30,15,22,26.30
2015,06,30,15,23,26.30
2015,06,30,15,24,26.30
2015,06,30,15,25,26.40
2015,06,30,15,26,26.30
2015,06,30,15,27,26.30
2015,06,30,15,28,26.30
2015,06,30,15,29,26.30
2015,06,30,15,30,26.30
2015,06,30,15,31,26.30
2015,06,30,15,32,26.30
2015,06,30,15,33,26.30
2015,06,30,15,34,26.30
2015,06,30,15,35,26.30
2015,06,30,15,36,26.30
2015,06,30,15,37,26.20
2015,06,30,15,38,26.20
2015,06,30,15,39,26.20
2015,06,30,15,40,26.20
2015,06,30,15,41,26.10
2015,06,30,15,42,26.10
2015,06,30,15,43,26.10
2015,06,30,15,44,26.00
2015,06,30,15,45,26.00
2015,06,30,15,46,25.90
2015,06,30,15,47,25.90
2015,06,30,15,48,25.90
2015,06,30,15,49,25.90
2015,06,30,15,50,26.00
2015,06,30,15,51,26.00
2015,06,30,15,52,25.80
2015,06,30,15,53,25.70
2015,06,30,15,54,25.70
2015,06,30,15,55,25.60
2015,06,30,15,56,25.50
2015,06,30,15,57,25.50
2015,06,30,15,58,25.60
2015,06,30,15,59,25.60
2015,06,30,16,00,25.70
2015,06,30,16,01,25.70
2015,06,30,16,02,25.70
2015,06,30,16,03,25.70
2015,06,30,16,04,25.60
2015,06,30,16,05,25.60
2015,06,30,16,06,25.40
2015,06,30,16,07,25.30
2015,06,30,16,08,25.20
2015,06,30,16,09,25.10
2015,06,30,16,10,25.20
2015,06,30,16,11,25.20
2015,06,30,16,12,25.20
2015,06,30,16,13,25.30
2015,06,30,16,14,25.30
2015,06,30,16,15,25.30
2015,06,30,16,16,25.30
2015,06,30,16,17,25.20
2015,06,30,16,18,25.20
2015,06,30,16,19,25.30
2015,06,30,16,20,25.30
2015,06,30,16,21,25.30
2015,06,30,16,22,25.40
2015,06,30,16,23,25.40
2015,06,30,16,24,25.40
2015,06,30,16,25,25.50
2015,06,30,16,26,25.50
2015,06,30,16,27,25.50
2015,06,30,16,28,25.50
2015,06,30,16,29,25.50
2015,06,30,16,30,25.60
2015,06,30,16,31,25.60
2015,06,30,16,32,25.60
2015,06,30,16,33,25.70
2015,06,30,16,34,25.80
2015,06,30,16,35,25.80
2015,06,30,16,36,25.80
2015,06,30,16,37,25.80
2015,06,30,16,38,25.80
2015,06,30,16,39,25.80
2015,06,30,16,40,25.80
2015,06,30,16,41,25.80
2015,06,30,16,42,25.80
2015,06,30,16,43,25.70
2015,06,30,16,44,25.70
2015,06,30,16,45,25.70
2015,06,30,16,46,25.80
2015,06,30,16,47,25.70
2015,06,30,16,48,25.70
2015,06,30,16,49,25.70
2015,06,30,16,50,25.70
2015,06,30,16,51,25.60
2015,06,30,16,52,25.60
2015,06,30,16,53,25.50
2015,06,30,16,54,25.50
2015,06,30,16,55,25.60
2015,06,30,16,56,25.70
2015,06,30,16,57,25.60
2015,06,30,16,58,25.70
2015,06,30,16,59,25.60
2015,06,30,17,00,25.60
2015,06,30,17,01,25.60
2015,06,30,17,02,25.70
2015,06,30,17,03,25.70
2015,06,30,17,04,25.70
2015,06,30,17,05,25.70
2015,06,30,17,06,25.70
2015,06,30,17,07,25.60
2015,06,30,17,08,25.70
2015,06,30,17,09,25.70
2015,06,30,17,10,25.80
2015,06,30,17,11,25.70
2015,06,30,17,12,25.70
2015,06,30,17,13,25.80
2015,06,30,17,14,25.80
2015,06,30,17,15,25.80
2015,06,30,17,16,25.90
2015,06,30,17,17,25.90
2015,06,30,17,18,25.90
2015,06,30,17,19,26.00